User: anonymous   Login
Location: El Limón
(10.3059°N, 67.6321°W)
Time: 17:51:46
(UTC+00:00)
Language:

Cosmos 1766 - Orbit

View from above orbital plane
View from above orbital plane
View from above satellite
View from above satellite

Ground track
Ground track

The orbit data is extracted from the following two-line orbital elements,

1 16881U 86055A   24171.32228263  .00007141  00000-0  29405-3 0  9997
2 16881  82.5010  29.7547 0010523 271.2555  88.7476 15.23896874 68326
Epoch (UTC): 19 June 2024 07:44:05
Eccentricity: 0.0010523
inclination: 82.5010°
perigee height: 487 km
apogee height: 501 km
right ascension of ascending node: 29.7547°
argument of perigee: 271.2555°
revolutions per day: 15.23896874
mean anomaly at epoch: 88.7476°
orbit number at epoch: 6832

The dashed part of the orbit path shows where the satellite is in the earth's shadow,  

DLR